Tracking 17138 objects as of 2-July-2015
HD Live streaming from Space Station

NAVSTAR 30 (USA 88)

Track NAVSTAR 30 (USA 88) now!
NAVSTAR 30 (USA 88) is classified as:


NORAD ID: 22446
Int'l Code: 1993-007A
Perigee: 21,289.1 km
Apogee: 21,412.5 km
Inclination: 55.4 °
Period: 765.6 minutes
Semi major axis: 27721 km
RCS: 2.5118 m2 (large)
Launch date: February 3, 1993
Source: United States (US)
PRN:
Your satellite tracking list
Your tracking list is empty





NASA's NSSDC Master Catalog

Two Line Element Set (TLE):
1 22446U 93007A   15181.76623455 -.00000046  00000-0  00000+0 0  9991
2 22446 055.3611 024.8928 0022255 322.7309 042.9924 01.88091999158734

Source of the keplerian elements: AFSPC

N2YO: 228